User: anonymous   Login
Location: Kailua
(21.4020°N, 157.7390°W)
Time: 02:08:05
(UTC-10:00)
Language:

Cosmos 2221 Rocket - Orbit

View from above orbital plane
View from above orbital plane
View from above satellite
View from above satellite

Ground track
Ground track

The orbit data is extracted from the following two-line orbital elements,

1 22237U 92080B   14355.20302900  .00000663  00000-0  88654-4 0  5221
2 22237 082.5123 243.1446 0018357 298.8185 174.3041 14.78009040189155
Epoch (UTC): 21 December 2014 04:52:21
Eccentricity: 0.0018357
inclination: 82.5123°
perigee height: 623 km
apogee height: 648 km
right ascension of ascending node: 243.1446°
argument of perigee: 298.8185°
revolutions per day: 14.78009040
mean anomaly at epoch: 174.3041°
orbit number at epoch: 18915

The dashed part of the orbit path shows where the satellite is in the earth's shadow,  

DLR